This is the latest recevied weather packets stored in our database for station/object N3TJJ-11. If no packets are shown the sender has not sent any weather packets the latest 1 day(s).
| Time | Temp. | Humidity | Pressure | Rain* | Wind** | Luminosity | Snow |
|---|---|---|---|---|---|---|---|
| 1777961626 | 15° C | 66% | 1008.5 hPa | 0 mm | 3.13 m/s, 237° | - | - |
| 1777961505 | 15° C | 65% | 1008.5 hPa | 0 mm | 3.13 m/s, 227° | - | - |
| 1777961026 | 15° C | 65% | 1008.5 hPa | 0 mm | 3.58 m/s, 229° | - | - |
| 1777960426 | 15° C | 66% | 1008.5 hPa | 0 mm | 2.68 m/s, 247° | - | - |
| 1777960065 | 15° C | 67% | 1008.5 hPa | 0 mm | 2.68 m/s, 215° | - | - |
| 1777959826 | 15° C | 67% | 1008.5 hPa | 0 mm | 3.13 m/s, 238° | - | - |
| 1777959345 | 15° C | 67% | 1008.5 hPa | 0 mm | 3.13 m/s, 238° | - | - |
| 1777959228 | 15° C | 67% | 1008.6 hPa | 0 mm | 2.68 m/s, 244° | - | - |
| 1777958625 | 15° C | 67% | 1008.5 hPa | 0 mm | 2.68 m/s, 232° | - | - |
| 1777958026 | 15° C | 67% | 1008.5 hPa | 0 mm | 2.24 m/s, 233° | - | - |
| 1777957905 | 15° C | 67% | 1008.4 hPa | 0 mm | 2.24 m/s, 242° | - | - |
| 1777957426 | 15° C | 67% | 1008.4 hPa | 0 mm | 2.68 m/s, 250° | - | - |
| 1777957185 | 15° C | 67% | 1008.5 hPa | 0 mm | 2.24 m/s, 248° | - | - |
| 1777956826 | 15° C | 67% | 1008.5 hPa | 0 mm | 2.24 m/s, 231° | - | - |
| 1777956465 | 15° C | 67% | 1008.5 hPa | 0 mm | 2.24 m/s, 234° | - | - |
| 1777956264 | 15° C | 67% | 1008.5 hPa | 0 mm | 2.24 m/s, 232° | - | - |
| 1777956230 | 15° C | 67% | 1008.5 hPa | 0 mm | 2.24 m/s, 232° | - | - |
| 1777955745 | 15° C | 67% | 1008.5 hPa | 0 mm | 2.24 m/s, 240° | - | - |
| 1777955629 | 15° C | - | - | 0 mm | 2.24 m/s, 207° | - | - |
| 1777955626 | 15° C | 67% | 1008.5 hPa | 0 mm | 2.24 m/s, 207° | - | - |
* Rain latest hour (hover to see other rain measurements)
** Current wind speed in m/s (hover to see current wind gust speed)